User: anonymous
Location: Hancock Field Station
(44.9202°N, 120.4259°W)
Time: 12:36:58
(UTC-07:00)
Language:

Cosmos 1707 - Orbit

View from above orbital plane
View from above orbital plane
View from above satellite
View from above satellite

Ground track
Ground track

The orbit data is extracted from the following two-line orbital elements,

1 16326U 85113A   14211.37214428  .00001377  00000-0  86348-4 0  9672
2 16326 082.5161 159.8797 0012853 332.2243 027.8297 15.08489484558292
Epoch (UTC): 30 July 2014 08:55:53
Eccentricity: 0.0012853
inclination: 82.5161°
perigee height: 532 km
apogee height: 550 km
right ascension of ascending node: 159.8797°
argument of perigee: 332.2243°
revolutions per day: 15.08489484
mean anomaly at epoch: 27.8297°
orbit number at epoch: 55829

The dashed part of the orbit path shows where the satellite is in the earth's shadow,  

DLR